Other Public Products
Issued by NWS Grand Forks, ND

Home | Current Version | Previous Version | Text Only | Print | Product List | Glossary Off
Versions: 1 2 3 4 5 6 7 8 9 10 11 12 13 14 15 16 17 18 19 20 21 22 23 24 25 26 27 28 29 30 31 32 33 34 35 36 37 38 39 40 41 42 43 44 45 46 47 48 49 50

000
FPUS83 KFGF 300410
OPUFGF
PRAIRIE TO PINES WEATHER ROUNDUP
NATIONAL WEATHER SERVICE EASTERN NORTH DAKOTA/GRAND FORKS ND
1100 PM CDT MON JUN 29 2015

 **SATELLITE DATA USED TO AUGMENT SKY COVER AT AUTOMATED STATIONS**
 *****  WEATHER ACROSS EASTERN NORTH DAKOTA  *****

CITY           SKY/WX    TMP DP  RH WIND       PRES   REMARKS
GRAND FORKS    CLOUDY    61  58  90 N3        29.91S
GRAND FORKS AF CLEAR     61  59  92 N6        29.93R
GRAND CITY NWS   N/A     64 N/A N/A N5          N/A
BUXTON         NOT AVBL
DEVILS LAKE    MOCLDY    64  57  77 E5        29.94S
FARGO          CLEAR     66  61  84 N8        29.90R
WAHPETON ARPT  CLEAR     64  59  82 NW6       29.91S
$$

 *****  WEATHER ACROSS CENTRAL AND WESTERN NORTH DAKOTA  *****

CITY           SKY/WX    TMP DP  RH WIND       PRES   REMARKS
JAMESTOWN      CLOUDY    68  62  81 NE8       29.93R
BISMARCK       PTCLDY    75  64  68 E6        29.92R
MINOT          CLOUDY    72  62  71 E7        29.92R
MINOT AFB      CLEAR     73  66  78 E6        29.92R
GARRISON         N/A     75  64  68 SE3       29.92R
WILLISTON      CLOUDY    75  54  47 N16       29.98R HAZE
DICKINSON      MOCLDY    73  65  75 NE7       29.94R
HETTINGER      MOCLDY    71  64  78 NW3       29.96R
$$

 *****  OTHER OBSERVATIONS NORTHEAST NORTH DAKOTA  *****

CITY           SKY/WX    TMP DP  RH WIND       PRES   REMARKS
WALHALLA       FAIR      64  64 100 MISG      29.95R
LANGDON        FAIR      61  61 100 N5        29.97R
CAVALIER       FAIR      66  63  88 N5        29.94S
GRAFTON        FAIR      64  61  88 N5        29.93S
CANDO          CLOUDY    64  61  88 E6        29.96R
FORT TOTTEN      N/A     67  61  80 E3        29.95S
ROLLA          CLOUDY    61  59  94 N6        29.99R
RUGBY          NOT AVBL
 ***** THE ABOVE OBSERVATIONS ARE NON NWS ARE NOT QUALITY
        CONTROLLED AND MAY MIS-REPORT RAIN FOR SNOW...
$$

 *****  OTHER OBSERVATIONS SOUTHEAST NORTH DAKOTA *****

CITY           SKY/WX    TMP DP  RH WIND       PRES   REMARKS
COOPERSTOWN    NOT AVBL
VALLEY CITY    CLOUDY    66  64  94 NE5       29.94S
OAKES            N/A     66  64  94 NE6       29.93S
GWINNER        NOT AVBL
BUFFALO        NOT AVBL
WYNDMERE       NOT AVBL
 ***** THE ABOVE OBSERVATIONS ARE NON NWS ARE NOT QUALITY
       CONTROLLED AND MAY MIS-REPORT RAIN FOR SNOW...
$$

  *****  WEATHER ACROSS NORTHERN MINNESOTA  *****

CITY           SKY/WX    TMP DP  RH WIND       PRES   REMARKS
FLAG ISLAND    CLEAR     66  55  68 NE10G17   29.93R
WARROAD        CLEAR     61  55  82 CALM      29.93S
ROSEAU         CLEAR     63  57  82 CALM      29.93R
HALLOCK        CLEAR     63  57  82 N6        29.93R
THF RVR FALLS  CLEAR     64  61  88 N5        29.93R
HALSTAD        NOT AVBL
FOSSTON        CLEAR     61  55  82 CALM      29.93R
BAUDETTE       CLEAR     64  55  72 NE7       29.92R
WASKISH        CLEAR     64  57  77 CALM      29.92R
CROOKSTON      CLEAR     63  59  88 N7        29.92S
$$
  *****  WEATHER ACROSS CENTRAL AND WEST MINNESOTA  *****

CITY           SKY/WX    TMP DP  RH WIND       PRES   REMARKS
BEMIDJI        CLEAR     61  56  85 N5        29.92R
PARK RAPIDS    CLEAR     70  57  63 N9        29.90R
WADENA         CLEAR     64  63  94 NW6       29.89R
DETROIT LAKES  CLEAR     66  61  82 N7        29.92S
MOORHEAD       CLEAR     64  61  88 N7        29.91S
FERGUS FALLS   FAIR      66  66 100 N8        29.89S
ELBOW LAKE     FAIR      68  64  88 N7        29.89S
MORRIS MN      CLEAR     66  63  88 NW5       29.89R
STAPLES        PTCLDY    64  57  77 N3        29.89R
WHEATON        CLEAR     64  61  88 NW3       29.92S
$$
  *****  WEATHER ELSEWHERE ACROSS MINNESOTA  *****

CITY           SKY/WX    TMP DP  RH WIND       PRES   REMARKS
DULUTH         CLEAR     63  57  81 N6        29.86R
INTRNTL FALLS  CLEAR     64  55  72 NE8       29.91R
ELY            PTCLDY    61  55  82 CALM      29.88R
CLOQUET        CLEAR     63  55  77 NW3       29.87R
BRAINERD       CLEAR     70  57  63 N8        29.87R
HIBBING        CLEAR     57  54  89 NW5       29.88R
ALEXANDRIA     CLEAR     68  64  87 N9        29.91R
SAINT CLOUD    CLEAR     64  62  93 W3        29.84R
MINNEAPOLIS    PTCLDY    66  62  87 CALM      29.82S
$$

  *****  WEATHER ACROSS SOUTH DAKOTA  *****

CITY           SKY/WX    TMP DP  RH WIND       PRES   REMARKS
SIOUX FALLS    PTCLDY    72  62  71 W5        29.91R
BROOKINGS      PTCLDY    70  61  73 N6        29.94R
WATERTOWN      CLOUDY    64  60  87 NE6       29.93R
HURON          PTCLDY    73  67  81 NE5       29.91R
SISSETON         N/A     64  61  90 N6        29.91R
ABERDEEN       PTCLDY    70  62  76 E5        29.92R
MITCHELL       PTCLDY    75  66  73 SW5       29.91R
PIERRE         PTCLDY    72  62  71 E6        29.91R
MOBRIDGE       MOCLDY    79  63  57 E7        29.89R
RAPID CITY     CLEAR     70  61  73 CALM      30.03R
$$

  *****  SOME WEATHER IN NEARBY STATES *****

CITY           SKY/WX    TMP DP  RH WIND       PRES   REMARKS
GLASGOW MT     NOT AVBL
GREAT FALLS MT TSTM      69  61  75 SW30G39   30.02R
CHEYENNE WY    CLEAR     69  46  43 W3        30.27R
SCOTTSBLUFF NE CLEAR     73  56  54 S5        30.12R
OMAHA NE       CLOUDY    73  66  78 CALM      29.92R
DES MOINES IA  CLOUDY    73  64  73 W3        29.88R
DAVENPORT IA   CLOUDY    65  62  90 S7        29.83F
CHICAGO IL     PTCLDY    66  64  93 SW5       29.79F
EAU CLAIRE WI  CLEAR     56  55  97 CALM      29.82R FOG
LA CROSSE WI   CLOUDY    63  60  90 W5        29.82R
$$

  *****  SOME NATIONAL WEATHER *****

CITY           SKY/WX    TMP DP  RH WIND       PRES   REMARKS
LA GUARDIA NY  PTCLDY    73  56  54 S7        29.94S
RALEIGH NC     PTCLDY    74  67  78 S5        29.96F
ATLANTA GA     PTCLDY    75  65  70 SW5       30.01R
NEW ORLEANS LA MOCLDY    81  73  76 SW8       30.03R
OKLAHOMA CITY  PTCLDY    75  60  59 N5        29.99R
ALBUQUERQUE NM MOCLDY    77  49  37 E25G33    30.17R
SALT LAKE CITY MOCLDY    93  52  24 S12       29.99R HX  90
LOS ANGELES CA PTCLDY    68  58  70 W9        29.89R
BOISE ID       MOCLDY    91  53  27 CALM      29.90R
SEATTLE WA     PTCLDY    76  60  57 S7        30.01R
$$

*** WEATHER ACROSS MANITOBA...SASKATCHEWAN AND ONTARIO ***
                ***ONTARIO***

CITY           SKY/WX    TMP DP  RH WIND       PRES   REMARKS
GERALDTON      CLOUDY    48  46  93 N7        29.92R FOG
THUNDER BAY    CLOUDY    57  52  82 N8G18     29.87R
SIOUX LOOKOUT  NOT AVBL
TORONTO        PTCLDY    64  57  77 SE2       29.88F
BIG TROUT LK   CLEAR     48  39  71 NE3       30.02S
PICKLE LAKE    NOT AVBL
DRYDEN         CLEAR     57  52  82 E9        29.96R
KENORA         PTCLDY    59  54  82 NE5       29.97R
$$
                *** MANITOBA***

CITY           SKY/WX    TMP DP  RH WIND       PRES   REMARKS
BRANDON        MOCLDY    59  57  94 N5        29.98R
DAUPHIN        CLEAR     61  61 100 CALM      29.98R FOG
ISLAND LAKE    PTCLDY    55  48  76 N3        30.02R
PILOT MOUND      N/A     63  59  88 NE6         N/A
THE PAS        PTCLDY    61  57  88 SE7       30.00S
THOMPSON       PTCLDY    59  50  72 CALM      30.01R
WINNIPEG       CLEAR     59  59 100 N5        29.95R
LYNN LAKE      CLEAR     57  55  94 SE7       29.99F
CHURCHILL      PTCLDY    52  45  76 SE6       29.98S
GILLAM         PTCLDY    50  41  71 S5        30.02S
$$
                ***SASKATCHEWAN***

CITY           SKY/WX    TMP DP  RH WIND       PRES   REMARKS
ESTEVAN          N/A     66  57  72 NE15      29.99R SMOKE
KINDERSLEY     LGT RAIN  63  59  88 SE6       30.03S
LLOYDMINSTER   CLOUDY    64  57  77 W7        30.01F
PRINCE ALBERT  SMOKE     63  59  88 CALM      29.98S VSB 1/2
REGINA         CLOUDY    66  55  68 NE8       30.00S SMOKE
YORKTON        CLOUDY    63  57  82 W5        29.99R HAZE



USA.gov is the U.S. government's official web portal to all federal, state and local government web resources and services.